#timestamp,LO_Frequency,Hit,StdDev 
1531504815.7,286047001.0,N
1531504835.6,286047000.3,N
1531504855.4,286047000.5,N
1531504875.3,286047001.0,N
1531504895.1,286047000.7,N
1531504915.8,286047001.1,N
1531504935.7,286046998.3,N
1531504955.5,286047001.0,N
1531504975.4,286047000.7,N
1531504995.2,286047000.8,N
1531505015.0,286046998.3,N
1531505015.9,286046998.3,N
1531505035.8,286047000.7,N
1531505055.6,286047000.7,N
1531505075.4,286047001.1,N
1531505095.3,286047000.7,N
1531505115.1,286047001.2,N
1531505135.9,286046998.3,N
1531505155.7,286046998.1,N
1531505175.5,286046998.8,N
1531505195.4,286047001.1,N
1531505215.2,286047001.0,N
1531505235.0,286047000.8,N
1531505235.9,286047000.8,N
1531505255.8,286047000.9,N
1531505275.6,286046998.3,N
1531505295.5,286046998.5,N
1531505315.3,286047001.0,N
1531505335.1,286047000.9,N
1531505355.9,286047000.4,N
1531505375.7,286047000.4,N
1531505395.5,286047000.2,N
1531505415.4,286047003.3,N
1531505435.2,286047002.9,N
1531505455.1,286047003.0,N
1531505456.0,286047003.0,N
1531505475.8,286047003.2,N
1531505495.6,286047003.0,N
1531505515.5,286047004.1,N
1531505535.3,286047003.5,N
1531505555.2,286047003.1,N
1531505575.9,286047002.5,N
1531505595.7,286046999.8,N
1531505615.6,286047003.4,N
1531505635.4,286047003.1,N
1531505655.2,286047003.2,N
1531505675.1,286046999.7,N
1531505676.0,286046999.7,N
1531505695.8,286046997.1,N
1531505715.7,286046996.8,N
1531505735.5,286046999.4,N
1531505755.3,286046996.5,N
1531505775.2,286047003.6,N
1531505795.0,286047004.2,N
1531505795.9,286047004.2,N
1531505815.7,286047001.5,N
1531505835.6,286047001.9,N
1531505855.4,286047002.0,N
1531505875.3,286047001.5,N
1531505895.1,286047002.0,N
1531505896.0,286047002.0,N
1531505915.8,286047000.4,N
1531505935.7,286046999.9,N
1531505955.5,286047002.8,N
1531505975.4,286047002.5,N
1531505995.2,286047002.2,N
1531506015.0,286047002.8,N
1531506015.9,286047002.8,N
1531506035.8,286047004.1,N
1531506055.6,286047003.8,N
1531506075.4,286047005.6,N
1531506095.3,286047004.7,N
1531506115.1,286047004.5,N
1531506135.9,286047006.3,N
1531506155.7,286047005.4,N
1531506175.5,286047003.2,N
1531506195.4,286047005.8,N
1531506215.2,286047004.9,N
1531506235.0,286047004.3,N
1531506235.9,286047004.3,N
1531506255.8,286047001.4,N
1531506275.6,286047002.1,N
1531506295.5,286047002.3,N
1531506315.3,286047000.2,N
1531506335.1,286046998.1,N
1531506355.9,286046997.2,N
1531506375.7,286046997.7,N
1531506395.5,286046996.9,N
1531506415.4,286047000.1,N
1531506435.2,286047002.2,N
1531506455.0,286047001.8,N
1531506456.0,286047001.8,N
1531506475.8,286047002.8,N
1531506495.6,286047000.0,N
1531506515.5,286046996.6,N
1531506535.3,286046998.4,N
1531506555.1,286046998.3,N
1531506575.9,286047000.8,N
1531506595.7,286046996.7,N
1531506615.6,286047000.9,N
1531506635.4,286046998.3,N
1531506655.2,286046997.6,N
1531506675.1,286046994.9,N
1531506676.0,286046994.9,N
1531506695.8,286046996.0,N
1531506715.6,286046995.7,N
1531506735.5,286046996.4,N
1531506755.3,286046997.0,N
1531506775.2,286046997.2,N
1531506795.9,286046995.0,N
1531506815.7,286046997.1,N
1531506835.6,286046996.5,N
1531506855.4,286046999.6,N
1531506875.2,286046996.8,N
1531506895.1,286046997.2,N
1531506896.0,286046997.2,N
1531506915.8,286046997.5,N
1531506935.7,286046997.6,N
1531506955.5,286046995.0,N
1531506975.3,286046999.4,N
1531506995.2,286046996.5,N
1531507015.0,286046995.3,N
1531507015.9,286046995.3,N
1531507035.7,286046995.1,N
1531507055.6,286046995.1,Y
1531507075.4,286046998.4,P
1531507095.3,286047000.4,N
1531507115.1,286047004.7,P
1531507135.8,286047004.9,N
1531507155.7,286047007.4,N
1531507175.5,286047007.4,N
1531507195.4,286047005.9,N
1531507215.2,286047005.4,N
1531507235.0,286047005.9,N
1531507235.9,286047005.9,N
1531507255.8,286047005.4,N
1531507275.6,286047005.1,N
1531507295.4,286047007.3,N
1531507315.3,286047005.0,N
1531507335.1,286047003.7,N
1531507355.9,286047006.0,N
1531507375.7,286047005.7,N
1531507395.5,286047005.5,N
1531507415.4,286047003.2,N
1531507435.2,286047005.4,N
1531507455.0,286047006.3,N
1531507455.9,286047006.3,N
1531507475.8,286047007.3,N
1531507495.6,286047005.8,N
1531507515.5,286047005.2,N
1531507535.3,286047003.4,N
1531507555.1,286047007.3,N
1531507575.9,286047008.4,Y
1531507595.7,286047002.5,P
1531507615.5,286047001.2,N
1531507635.4,286047000.8,N
1531507655.2,286046999.0,N
1531507675.1,286046996.8,N
1531507676.0,286046996.8,N
1531507695.8,286046996.8,N
1531507715.6,286046998.8,N
1531507735.5,286046997.5,N
1531507755.3,286046995.4,N
1531507775.2,286046994.9,N
1531507795.9,286046997.0,N
1531507815.7,286046998.2,N
1531507835.6,286046999.1,N
1531507855.4,286046999.5,N
1531507875.2,286046999.5,N
1531507895.1,286046998.4,N
1531507896.0,286046998.4,N
1531507915.8,286047000.8,N
1531507935.7,286047004.3,N
1531507955.5,286047000.9,N
1531507975.3,286047001.2,N
1531507995.2,286047000.9,N
1531508015.0,286047000.6,N
1531508015.9,286047000.6,N
1531508035.7,286047001.1,N
1531508055.6,286047000.2,N
1531508075.4,286047001.0,N
1531508095.3,286047002.4,N
1531508115.1,286047000.3,N
1531508135.8,286047002.0,N
1531508155.7,286046999.8,N
1531508175.5,286046998.5,N
1531508195.4,286046998.4,N
1531508215.2,286046998.2,N
1531508235.0,286047001.2,N
1531508235.9,286047001.2,N
1531508255.8,286046998.6,N
1531508275.6,286046999.0,N
1531508295.4,286046996.9,N
1531508315.3,286046996.9,N
1531508335.1,286046995.0,N
1531508355.9,286046997.5,N
1531508375.7,286046996.8,N
1531508395.5,286046996.9,N
